TIMRA/MIDLANDA current weather conditions

sailwx.info

Wind from 270 at 2 knots

Air temperature -3.0° C
Visibility: greater than 5.4 NM
Dewpoint -6.0° C

Last reported at 2016-Dec-02 18:20 UTC.
Time now 2016-Dec-02 20:16 UTC

Location: N 62°32' E 017°27'.
View on Google Maps.

See reports from other nearby stations

  
Tides and Currents Weather Stations Pressure Air Temp Water Temp Dewpoint Dewpoint Depression Visibility Wind Speed Wind Dir Waves Ship Positions
date/time (UTC)wind fromknots sea level pressurealtimeterstation pressurevisibilityair tempwater tempwave heightnotes
2016-Dec-02 19:20 310 4 5.4-4.0
2016-Dec-02 18:50 330 6 5.4-3.0
2016-Dec-02 18:20 270 2 5.4-3.0
2016-Dec-02 17:50 5.4-3.0
2016-Dec-02 17:20 300 6 5.4-3.0
2016-Dec-02 16:50 320 8 5.4-3.0
2016-Dec-02 16:20 330 8 5.4-2.0
2016-Dec-02 15:50 320 11 5.4-2.0
2016-Dec-02 15:20 320 8 5.4-2.0
2016-Dec-02 14:50 310 8 5.4-2.0
2016-Dec-02 14:20 320 9 5.4-2.0
2016-Dec-02 13:50 320 11 5.4-1.0
2016-Dec-02 13:20 320 11 5.4-2.0
2016-Dec-02 12:50 310 11 5.4-1.0
2016-Dec-02 12:20 320 9 5.4-0.0
2016-Dec-02 11:50 320 12 5.4-0.0
2016-Dec-02 11:20 320 13 5.4-0.0
2016-Dec-02 10:50 320 12 5.4 1.0
2016-Dec-02 10:20 320 11 5.4 1.0
2016-Dec-02 09:50 320 14 5.4 1.0
2016-Dec-02 09:20 320 12 5.4 1.0
2016-Dec-02 08:50 320 13 5.4-0.0
2016-Dec-02 08:20 320 13 5.4-0.0
2016-Dec-02 07:50 320 12 5.4-0.0
2016-Dec-02 07:20 320 11 5.4-0.0
2016-Dec-02 06:50 330 9 5.4-0.0
2016-Dec-02 06:20 330 6 5.4-0.0
2016-Dec-02 05:50 320 6 5.4-0.0
2016-Dec-02 05:20 310 6 5.4 1.0
2016-Dec-02 04:50 320 6 5.4 1.0
2016-Dec-02 04:20 320 6 5.4 1.0
2016-Dec-02 03:50 340 9 5.4 1.0
2016-Dec-02 03:20 340 6 5.4-0.0
2016-Dec-02 02:50 320 7 5.4-0.0
2016-Dec-02 02:20 360 7 5.4-0.0
2016-Dec-02 01:50 350 13 4.9 1.0
2016-Dec-02 01:20 330 9 5.4 1.0
2016-Dec-02 00:50 5.4-1.0
2016-Dec-02 00:20 320 4 5.4-0.0
2016-Dec-01 23:50 5.4-0.0
2016-Dec-01 23:20 5.4-1.0
2016-Dec-01 22:50 5.4-1.0
2016-Dec-01 22:20 020 2 5.4-1.0
2016-Dec-01 21:50 350 6 5.4-0.0
2016-Dec-01 21:20 340 7 5.4-0.0
2016-Dec-01 20:50 330 7 5.4-0.0
2016-Dec-01 20:20 320 11 5.4-0.0
2016-Dec-01 19:50 320 9 5.4 1.0
2016-Dec-01 19:20 320 9 5.4 1.0
2016-Dec-01 18:50 320 9 5.4 1.0
2016-Dec-01 18:20 310 9 5.4 1.0
2016-Dec-01 17:50 310 9 5.4 1.0
2016-Dec-01 17:20 310 11 5.4 1.0
2016-Dec-01 16:50 310 11 5.4 1.0
2016-Dec-01 16:20 310 11 5.4 1.0
2016-Dec-01 15:50 300 12 5.4 1.0
2016-Dec-01 15:20 310 12 5.4 1.0
2016-Dec-01 14:50 310 9 5.4 1.0
2016-Dec-01 14:20 310 12 5.4 1.0
2016-Dec-01 13:50 310 9 5.4 1.0
2016-Dec-01 13:20 300 12 5.4 1.0
2016-Dec-01 12:50 310 6 5.4 1.0
2016-Dec-01 12:20 300 6 5.4 1.0
2016-Dec-01 11:50 300 7 5.4 1.0
2016-Dec-01 11:20 300 8 5.4 1.0
2016-Dec-01 10:50 300 9 5.4 1.0
2016-Dec-01 10:20 300 8 5.4 1.0
2016-Dec-01 08:50 300 5 5.4-0.0
2016-Dec-01 08:20 310 4 5.4-0.0
2016-Dec-01 07:50 320 6 5.4-0.0
2016-Dec-01 07:20 310 7 5.4-0.0
2016-Dec-01 06:50 310 6 5.4-0.0
2016-Dec-01 06:20 320 2 5.4-1.0
2016-Dec-01 05:50 5.4-1.0
2016-Dec-01 05:20 5.4-1.0
2016-Dec-01 04:50 320 4 5.4-0.0
2016-Dec-01 04:20 300 7 5.4-0.0
2016-Dec-01 03:50 310 7 5.4-0.0
2016-Dec-01 03:20 300 5 5.4-0.0
2016-Dec-01 02:50 320 5 5.4-1.0
2016-Dec-01 02:20 310 5 5.4-0.0
2016-Dec-01 01:50 300 5 5.4-0.0
2016-Dec-01 01:20 290 6 5.4-0.0
2016-Dec-01 00:50 290 6 5.4-0.0
2016-Dec-01 00:20 300 4 5.4-0.0
2016-Nov-30 23:50 280 7 5.4-0.0
2016-Nov-30 23:20 290 8 5.4-0.0
2016-Nov-30 22:50 300 8 5.4-0.0
2016-Nov-30 22:20 300 8 5.4-0.0
2016-Nov-30 21:50 300 8 5.4-0.0
2016-Nov-30 21:20 300 11 5.4-0.0
2016-Nov-30 20:50 290 9 5.4-0.0
2016-Nov-30 20:20 300 7 5.4-0.0